Location: Ch�tillon
(48.8024°N, 2.2935°E)
Time: 02:21:53
(UTC+00:00)

Oscar 19 - Pass Details

Date: 01 July 2022
Orbit: 773 x 790 km, 98.8° (Epoch: 08 August)

Event Time Altitude Azimuth Distance (km) Brightness Sun altitude
Rises 02:04:15 0° 30° (NNE) 3,263 16.0 -12.5°
Reaches altitude 10° 02:07:33 10° 52° (NE) 2,328 14.3 -12.2°
Maximum altitude 02:10:35 16° 88° (E) 1,954 13.1 -11.9°
Drops below altitude 10° 02:13:37 10° 125° (SE) 2,317 13.1 -11.7°
Sets 02:16:52 0° 147° (SSE) 3,239 13.6 -11.4°
